DW8790 Maspalomas ES current weather conditions

sailwx.info

Wind from 343

Air temperature 19.4° C
Dewpoint 14.9° C

Last reported at 2018-Nov-15 20:09 UTC.
Time now 2018-Nov-15 20:54 UTC

Location: N 27°46' W 015°34'.
View on Google Maps.

See reports from other nearby stations

  
Tides and Currents Weather Stations Pressure Air Temp Water Temp Dewpoint Dewpoint Depression Visibility Wind Speed Wind Dir Waves Ship Positions
date/time (UTC)wind fromknots sea level pressurealtimeterstation pressurevisibilityair tempwater tempwave heightnotes
2018-Nov-15 20:09 343 19.4
2018-Nov-15 20:04 332 1 gusting 2 19.4
2018-Nov-15 19:59 184 19.4
2018-Nov-15 19:54 184 20.0
2018-Nov-15 19:49 184 20.0
2018-Nov-15 19:44 184 20.0
2018-Nov-15 19:39 184 1 gusting 2 20.0
2018-Nov-15 19:34 184 0 gusting 2 20.0
2018-Nov-15 19:29 183 20.0
2018-Nov-15 19:24 183 0 gusting 2 20.0
2018-Nov-15 19:19 183 0 gusting 2 20.0
2018-Nov-15 19:14 183 20.0
2018-Nov-15 19:09 190 0 gusting 4 20.0
2018-Nov-15 19:04 163 0 gusting 5 20.0
2018-Nov-15 18:59 186 0 gusting 5 20.0
2018-Nov-15 18:54 162 0 gusting 2 20.0
2018-Nov-15 18:49 164 0 gusting 1 20.0
2018-Nov-15 18:44 164 20.0
2018-Nov-15 18:39 164 20.0
2018-Nov-15 18:34 173 0 gusting 4 20.0
2018-Nov-15 18:29 076 20.0
2018-Nov-15 18:24 076 20.0
2018-Nov-15 18:19 076 20.0
2018-Nov-15 18:14 076 0 gusting 2 20.0
2018-Nov-15 18:09 082 0 gusting 5 20.0
2018-Nov-15 18:04 081 2 gusting 5 20.0
2018-Nov-15 17:59 082 0 gusting 2 20.0
2018-Nov-15 17:54 100 0 gusting 4 20.0
2018-Nov-15 17:49 105 2 gusting 5 20.0
2018-Nov-15 17:44 086 0 gusting 2 20.6
2018-Nov-15 17:39 130 0 gusting 5 20.6
2018-Nov-15 17:34 139 1 gusting 5 20.6
2018-Nov-15 17:29 125 1 gusting 7 20.6
2018-Nov-15 17:24 110 1 gusting 7 20.6
2018-Nov-15 17:19 078 2 gusting 8 20.6
2018-Nov-15 17:14 106 2 gusting 7 20.6
2018-Nov-15 17:09 099 1 gusting 6 20.6
2018-Nov-15 17:04 113 3 gusting 6 20.6
2018-Nov-15 16:59 085 2 gusting 7 20.6
2018-Nov-15 16:54 081 6 gusting 10 20.6
2018-Nov-15 16:49 094 5 gusting 12 21.1
2018-Nov-15 16:44 112 4 gusting 10 21.1
2018-Nov-15 16:39 108 4 gusting 7 21.1
2018-Nov-15 16:34 098 4 gusting 10 21.1
2018-Nov-15 16:29 115 2 gusting 6 21.7
2018-Nov-15 16:24 123 3 gusting 6 21.1
2018-Nov-15 16:19 118 1 gusting 6 21.1
2018-Nov-15 16:14 162 1 gusting 5 21.1
2018-Nov-15 16:09 158 1 gusting 6 21.7
2018-Nov-15 16:04 088 1 gusting 6 21.7
2018-Nov-15 15:59 168 0 gusting 2 21.7
2018-Nov-15 15:54 171 21.1
2018-Nov-15 15:49 178 1 gusting 6 21.7
2018-Nov-15 15:44 110 1 gusting 2 21.7
2018-Nov-15 15:39 090 21.7
2018-Nov-15 15:34 079 1 gusting 5 21.7
2018-Nov-15 15:29 099 0 gusting 5 21.1
2018-Nov-15 15:19 148 2 gusting 4 21.1
2018-Nov-15 15:14 140 4 gusting 7 21.7
2018-Nov-15 15:09 076 4 gusting 10 21.7
2018-Nov-15 15:04 071 2 gusting 6 21.1
2018-Nov-15 14:59 152 1 gusting 4 21.1
2018-Nov-15 14:54 134 1 gusting 10 21.1
2018-Nov-15 14:49 071 4 gusting 6 21.1
2018-Nov-15 14:44 249 4 gusting 8 21.1
2018-Nov-15 14:39 227 5 gusting 8 21.7
2018-Nov-15 14:34 221 4 gusting 10 21.7
2018-Nov-15 14:29 261 6 gusting 10 21.7
2018-Nov-15 14:24 250 6 gusting 12 21.7
2018-Nov-15 14:19 276 4 gusting 10 21.7
2018-Nov-15 14:14 232 6 gusting 11 21.7
2018-Nov-15 14:09 238 6 gusting 11 21.7
2018-Nov-15 14:04 243 8 gusting 13 21.7
2018-Nov-15 13:59 231 7 gusting 13 21.7
2018-Nov-15 13:54 222 6 gusting 13 21.7
2018-Nov-15 13:49 262 6 gusting 12 22.2
2018-Nov-15 13:44 254 5 gusting 10 22.2
2018-Nov-15 13:39 247 7 gusting 13 22.2
2018-Nov-15 13:34 259 8 gusting 12 22.2
2018-Nov-15 13:29 231 8 gusting 13 22.2
2018-Nov-15 13:24 270 6 gusting 13 22.2
2018-Nov-15 13:19 256 5 gusting 11 22.2
2018-Nov-15 13:14 253 7 gusting 13 22.2
2018-Nov-15 13:09 238 10 gusting 14 22.2
2018-Nov-15 13:04 253 5 gusting 12 22.2
2018-Nov-15 12:59 264 7 gusting 15 22.2
2018-Nov-15 12:54 276 5 gusting 13 22.2
2018-Nov-15 12:49 268 6 gusting 15 21.7
2018-Nov-15 12:44 256 8 gusting 14 21.7
2018-Nov-15 12:39 274 7 gusting 14 21.7
2018-Nov-15 12:34 259 7 gusting 14 21.7
2018-Nov-15 12:29 261 8 gusting 15 21.7
2018-Nov-15 12:24 261 7 gusting 14 21.7
2018-Nov-15 12:19 256 11 gusting 15 21.7
2018-Nov-15 12:14 256 9 gusting 14 21.7
2018-Nov-15 12:09 265 8 gusting 14 21.7
2018-Nov-15 12:04 246 8 gusting 15 21.7
2018-Nov-15 11:59 248 10 gusting 15 21.1
2018-Nov-15 11:54 249 6 gusting 13 21.1
2018-Nov-15 11:49 256 10 gusting 13 21.1
2018-Nov-15 11:44 258 9 gusting 13 21.7
2018-Nov-15 11:39 249 9 gusting 15 21.7
2018-Nov-15 11:34 245 8 gusting 14 21.1
2018-Nov-15 11:29 257 7 gusting 14 21.1
2018-Nov-15 11:24 247 9 gusting 13 21.7
2018-Nov-15 11:19 269 6 gusting 11 21.7
2018-Nov-15 11:14 238 6 gusting 13 21.1
2018-Nov-15 11:09 236 6 gusting 10 21.1
2018-Nov-15 11:04 244 6 gusting 12 21.1
2018-Nov-15 10:59 245 6 gusting 11 21.1
2018-Nov-15 10:54 249 5 gusting 8 21.1
2018-Nov-15 10:49 221 6 gusting 11 20.6
2018-Nov-15 10:44 236 8 gusting 12 20.6
2018-Nov-15 10:39 255 6 gusting 10 20.6
2018-Nov-15 10:34 239 6 gusting 10 20.6
2018-Nov-15 10:29 252 4 gusting 7 20.6
2018-Nov-15 10:24 256 5 gusting 6 20.6
2018-Nov-15 10:19 251 4 gusting 7 20.0
2018-Nov-15 10:14 274 5 gusting 8 20.0
2018-Nov-15 10:09 265 6 gusting 10 20.0
2018-Nov-15 10:04 250 6 gusting 12 20.0
2018-Nov-15 09:59 277 5 gusting 11 20.0
2018-Nov-15 09:54 253 5 gusting 13 20.0
2018-Nov-15 09:49 277 5 gusting 10 20.6
2018-Nov-15 09:44 290 4 gusting 8 20.0
2018-Nov-15 09:39 261 5 gusting 10 20.0
2018-Nov-15 09:34 276 6 gusting 11 20.0
2018-Nov-15 09:29 280 3 gusting 10 20.0
2018-Nov-15 09:24 285 2 gusting 7 20.0
2018-Nov-15 09:19 297 4 gusting 7 20.0
2018-Nov-15 09:14 297 4 gusting 6 19.4
2018-Nov-15 09:09 300 2 gusting 5 19.4
2018-Nov-15 09:04 278 1 gusting 4 19.4
2018-Nov-15 08:59 266 1 gusting 5 19.4
2018-Nov-15 08:54 262 1 gusting 4 18.9
2018-Nov-15 08:49 241 0 gusting 2 18.9
2018-Nov-15 08:44 237 18.3
2018-Nov-15 08:39 302 0 gusting 2 18.3
2018-Nov-15 08:34 279 18.3
2018-Nov-15 08:29 279 18.3
2018-Nov-15 08:24 342 17.8
2018-Nov-15 08:19 342 17.8
2018-Nov-15 08:14 342 17.8
2018-Nov-15 08:09 342 17.2
2018-Nov-15 08:04 342 17.2
2018-Nov-15 07:59 342 17.2
2018-Nov-15 07:54 342 0 gusting 2 17.2
2018-Nov-15 07:49 346 0 gusting 2 17.2
2018-Nov-15 07:44 308 0 gusting 2 17.2
2018-Nov-15 07:39 346 0 gusting 2 17.2
2018-Nov-15 07:34 323 1 gusting 2 16.7
2018-Nov-15 07:29 16.7
2018-Nov-15 07:24 321 0 gusting 2 16.7
2018-Nov-15 07:19 323 1 gusting 2 16.7
2018-Nov-15 07:14 327 1 gusting 2 16.7
2018-Nov-15 07:09 347 16.7
2018-Nov-15 07:04 326 0 gusting 2 16.7
2018-Nov-15 06:59 326 1 gusting 2 16.7
2018-Nov-15 06:54 344 1 gusting 2 16.7
2018-Nov-15 06:49 327 2 gusting 2 16.7
2018-Nov-15 06:44 326 1 gusting 2 16.7
2018-Nov-15 06:39 321 1 gusting 2 16.7
2018-Nov-15 06:34 312 1 gusting 4 16.7
2018-Nov-15 06:29 320 1 gusting 2 16.7
2018-Nov-15 06:24 311 2 gusting 4 16.7
2018-Nov-15 06:19 320 2 gusting 5 16.7
2018-Nov-15 06:14 307 0 gusting 2 16.7
2018-Nov-15 06:09 330 1 gusting 2 16.7
2018-Nov-15 06:04 320 2 gusting 2 16.7
2018-Nov-15 05:59 326 2 gusting 4 16.7
2018-Nov-15 05:54 314 2 gusting 4 16.7
2018-Nov-15 05:49 322 2 gusting 4 16.1
2018-Nov-15 05:44 325 2 gusting 4 16.1
2018-Nov-15 05:39 314 2 gusting 4 16.1
2018-Nov-15 05:34 340 2 gusting 2 16.1
2018-Nov-15 05:29 318 0 gusting 2 16.1
2018-Nov-15 05:24 329 0 gusting 2 16.1
2018-Nov-15 05:19 036 16.1
2018-Nov-15 05:14 036 0 gusting 1 16.1
2018-Nov-15 05:09 324 1 gusting 2 16.7
2018-Nov-15 05:04 330 0 gusting 2 16.1
2018-Nov-15 04:59 309 0 gusting 2 16.1
2018-Nov-15 04:54 16.1
2018-Nov-15 04:49 310 2 gusting 4 16.7
2018-Nov-15 04:44 331 2 gusting 4 16.7
2018-Nov-15 04:39 316 16.7
2018-Nov-15 04:34 005 16.7
2018-Nov-15 04:29 358 0 gusting 2 16.7
2018-Nov-15 04:24 343 1 gusting 2 16.7
2018-Nov-15 04:19 318 16.7
2018-Nov-15 04:14 346 16.7
2018-Nov-15 04:09 340 16.7
2018-Nov-15 04:04 340 16.7
2018-Nov-15 03:59 313 1 gusting 2 16.7
2018-Nov-15 03:54 339 0 gusting 5 16.7
2018-Nov-15 03:49 273 16.7
2018-Nov-15 03:44 311 1 gusting 2 16.7
2018-Nov-15 03:39 345 1 gusting 4 16.7
2018-Nov-15 03:34 339 1 gusting 4 16.7
2018-Nov-15 03:29 318 0 gusting 2 16.7
2018-Nov-15 03:19 239 0 gusting 4 16.7
2018-Nov-15 03:14 337 1 gusting 5 16.7
2018-Nov-15 03:09 356 1 gusting 5 16.7
2018-Nov-15 03:04 017 2 gusting 5 16.7
2018-Nov-15 02:59 256 0 gusting 2 16.7
2018-Nov-15 02:54 293 0 gusting 2 17.2
2018-Nov-15 02:49 355 0 gusting 2 17.2
2018-Nov-15 02:44 346 1 gusting 4 17.2
2018-Nov-15 02:39 331 1 gusting 4 17.2
2018-Nov-15 02:34 323 1 gusting 4 17.2
2018-Nov-15 02:29 343 1 gusting 5 17.2
2018-Nov-15 02:24 328 1 gusting 4 17.2
2018-Nov-15 02:19 016 1 gusting 4 17.2
2018-Nov-15 02:14 358 17.2
2018-Nov-15 02:09 012 17.2
2018-Nov-15 02:04 027 17.2
2018-Nov-15 01:59 015 1 gusting 5 17.2
2018-Nov-15 01:54 307 1 gusting 4 17.2
2018-Nov-15 01:49 018 17.2
2018-Nov-15 01:44 336 0 gusting 2 17.2
2018-Nov-15 01:39 005 17.2
2018-Nov-15 01:34 358 0 gusting 2 17.2
2018-Nov-15 01:29 303 0 gusting 2 17.2
2018-Nov-15 01:25 019 17.2
2018-Nov-15 01:19 333 17.2
2018-Nov-15 01:14 039 17.2
2018-Nov-15 01:09 039 1 gusting 2 17.2
2018-Nov-15 01:04 047 0 gusting 2 17.2
2018-Nov-15 00:59 047 0 gusting 4 17.8
2018-Nov-15 00:54 051 0 gusting 4 17.8
2018-Nov-15 00:49 346 17.8
2018-Nov-15 00:44 346 17.8
2018-Nov-15 00:39 346 17.8
2018-Nov-15 00:34 346 17.8
2018-Nov-15 00:29 346 17.8
2018-Nov-15 00:24 345 17.8
2018-Nov-15 00:19 345 17.8
2018-Nov-15 00:14 345 0 gusting 2 18.3
2018-Nov-15 00:09 057 17.8
2018-Nov-15 00:04 329 0 gusting 2 17.8
2018-Nov-14 23:59 339 17.8
2018-Nov-14 23:54 340 0 gusting 5 17.8
2018-Nov-14 23:49 009 0 gusting 4 17.8
2018-Nov-14 23:44 327 17.8
2018-Nov-14 23:39 350 1 gusting 5 17.8
2018-Nov-14 23:34 319 17.8
2018-Nov-14 23:29 319 0 gusting 1 17.8
2018-Nov-14 23:24 17.8
2018-Nov-14 23:19 295 17.8
2018-Nov-14 23:14 036 17.2
2018-Nov-14 23:09 036 17.8
2018-Nov-14 23:04 036 17.8
2018-Nov-14 22:59 036 17.8
2018-Nov-14 22:54 036 17.8
2018-Nov-14 22:49 008 0 gusting 2 17.8
2018-Nov-14 22:44 005 17.8
2018-Nov-14 22:39 288 0 gusting 4 17.8
2018-Nov-14 22:34 006 0 gusting 2 17.8
2018-Nov-14 22:29 355 0 gusting 4 17.8
2018-Nov-14 22:24 17.8
2018-Nov-14 22:19 349 0 gusting 4 17.8
2018-Nov-14 22:14 342 0 gusting 2 17.8
2018-Nov-14 22:09 356 2 gusting 4 17.8
2018-Nov-14 22:04 275 0 gusting 2 17.8
2018-Nov-14 21:59 299 0 gusting 2 17.8
2018-Nov-14 21:54 345 1 gusting 4 17.8
2018-Nov-14 21:49 023 0 gusting 2 17.8
2018-Nov-14 21:44 335 17.8
2018-Nov-14 21:39 200 18.3
2018-Nov-14 21:34 200 18.3
2018-Nov-14 21:29 200 18.3
2018-Nov-14 21:24 200 18.3
2018-Nov-14 21:19 200 18.3
2018-Nov-14 21:14 200 18.3
2018-Nov-14 21:09 200 18.3
2018-Nov-14 21:04 200 18.3
2018-Nov-14 20:59 200 18.9
2018-Nov-14 20:54 200 18.9
2018-Nov-14 20:49 200 18.9
2018-Nov-14 20:44 200 18.9
2018-Nov-14 20:39 200 18.9
2018-Nov-14 20:34 200 18.9
2018-Nov-14 20:29 200 18.9
2018-Nov-14 20:24 200 18.9
2018-Nov-14 20:19 200 18.9
2018-Nov-14 20:14 200 19.4
2018-Nov-14 20:09 200 19.4
2018-Nov-14 20:04 200 19.4
2018-Nov-14 19:59 200 19.4
2018-Nov-14 19:54 252 19.4
2018-Nov-14 19:49 252 19.4
2018-Nov-14 19:44 252 19.4
2018-Nov-14 19:39 252 19.4
2018-Nov-14 19:34 252 19.4
2018-Nov-14 19:29 252 19.4
2018-Nov-14 19:24 252 19.4
2018-Nov-14 19:19 252 19.4
2018-Nov-14 19:14 252 19.4
2018-Nov-14 19:09 252 0 gusting 2 19.4
2018-Nov-14 19:04 244 0 gusting 2 20.0
2018-Nov-14 18:59 255 2 gusting 4 20.0
2018-Nov-14 18:54 225 3 gusting 6 20.0
2018-Nov-14 18:49 231 2 gusting 6 20.0
2018-Nov-14 18:44 228 3 gusting 6 20.0
2018-Nov-14 18:39 239 3 gusting 6 20.0
2018-Nov-14 18:34 233 2 gusting 6 20.0
2018-Nov-14 18:29 223 4 gusting 6 20.0
2018-Nov-14 18:24 218 2 gusting 6 20.6
2018-Nov-14 18:19 262 2 gusting 6 20.6
2018-Nov-14 18:14 262 2 gusting 6 20.6
2018-Nov-14 18:09 262 3 gusting 6 20.6
2018-Nov-14 18:04 260 0 gusting 2 20.6
2018-Nov-14 17:59 305 1 gusting 6 20.6
2018-Nov-14 17:54 252 4 gusting 6 20.6
2018-Nov-14 17:49 236 3 gusting 6 20.6
2018-Nov-14 17:44 261 4 gusting 7 20.6
2018-Nov-14 17:39 258 5 gusting 7 21.1
2018-Nov-14 17:34 250 2 gusting 7 21.1
2018-Nov-14 17:29 249 4 gusting 7 21.1
2018-Nov-14 17:24 253 5 gusting 10 21.1
2018-Nov-14 17:19 254 4 gusting 7 21.7
2018-Nov-14 17:14 224 5 gusting 7 21.7
2018-Nov-14 17:09 263 2 gusting 7 21.7
2018-Nov-14 17:04 260 3 gusting 6 21.7
2018-Nov-14 16:59 217 3 gusting 6 21.7
2018-Nov-14 16:54 217 4 gusting 6 21.7
2018-Nov-14 16:49 219 2 gusting 6 21.7
2018-Nov-14 16:44 220 4 gusting 7 21.1
2018-Nov-14 16:39 231 3 gusting 6 21.1
2018-Nov-14 16:34 248 4 gusting 7 21.1
2018-Nov-14 16:29 240 3 gusting 7 21.1
2018-Nov-14 16:24 222 3 gusting 7 21.1
2018-Nov-14 16:19 222 5 gusting 10 20.6
2018-Nov-14 16:14 244 4 gusting 8 21.1
2018-Nov-14 16:09 267 6 gusting 11 21.1
2018-Nov-14 16:04 240 6 gusting 10 21.1
2018-Nov-14 15:59 258 4 gusting 10 21.7
2018-Nov-14 15:54 231 4 gusting 10 21.7
2018-Nov-14 15:49 259 5 gusting 8 21.7
2018-Nov-14 15:44 267 5 gusting 10 21.7
2018-Nov-14 15:39 285 4 gusting 10 21.7
2018-Nov-14 15:34 269 2 gusting 6 21.1
2018-Nov-14 15:29 288 4 gusting 7 21.1
2018-Nov-14 13:04 243 7 gusting 12 21.7
2018-Nov-14 12:59 261 6 gusting 10 21.7
2018-Nov-14 12:54 262 6 gusting 10 21.7
2018-Nov-14 12:49 235 5 gusting 10 21.7
2018-Nov-14 12:44 229 5 gusting 10 21.1
2018-Nov-14 12:39 249 6 gusting 10 21.7
2018-Nov-14 12:34 217 5 gusting 12 21.1
2018-Nov-14 12:29 199 6 gusting 11 21.1
2018-Nov-14 12:24 205 4 gusting 12 21.7
2018-Nov-14 12:19 228 6 gusting 11 21.1
2018-Nov-14 12:14 226 6 gusting 12 21.1
2018-Nov-14 12:09 227 6 gusting 13 21.1
2018-Nov-14 12:04 223 5 gusting 10 21.7
2018-Nov-14 11:59 227 5 gusting 10 21.7
2018-Nov-14 11:54 198 4 gusting 10 21.7
2018-Nov-14 11:49 193 5 gusting 8 21.7
2018-Nov-14 11:44 243 6 gusting 10 21.1
2018-Nov-14 11:39 225 5 gusting 8 21.1
2018-Nov-14 11:34 210 5 gusting 11 21.1
2018-Nov-14 11:29 188 4 gusting 7 21.1
2018-Nov-14 11:24 227 5 gusting 11 21.1
2018-Nov-14 11:19 236 4 gusting 10 21.1
2018-Nov-14 11:14 205 4 gusting 6 21.1
2018-Nov-14 11:09 215 2 gusting 6 21.1
2018-Nov-14 11:04 243 3 gusting 6 21.1
2018-Nov-14 10:59 189 2 gusting 5 21.1
2018-Nov-14 10:54 243 2 gusting 6 21.1
2018-Nov-14 10:49 228 2 gusting 6 21.1
2018-Nov-14 10:44 207 3 gusting 6 21.1
2018-Nov-14 10:39 233 2 gusting 5 20.6
2018-Nov-14 10:34 170 2 gusting 5 20.6
2018-Nov-14 10:29 168 2 gusting 6 20.6
2018-Nov-14 10:24 199 1 gusting 4 20.6
2018-Nov-14 10:19 193 1 gusting 6 20.6
2018-Nov-14 10:14 199 1 gusting 4 21.1
2018-Nov-14 10:09 148 1 gusting 6 20.6
2018-Nov-14 10:04 162 1 gusting 2 21.1
2018-Nov-14 09:59 215 0 gusting 2 21.1
2018-Nov-14 09:54 248 0 gusting 2 21.1
2018-Nov-14 09:49 229 0 gusting 4 20.6
2018-Nov-14 09:44 243 1 gusting 4 21.1
2018-Nov-14 09:39 023 0 gusting 2 21.1
2018-Nov-14 09:34 023 21.1
2018-Nov-14 09:29 023 0 gusting 1 20.6
2018-Nov-14 09:24 023 20.6
2018-Nov-14 09:19 023 0 gusting 2 20.0
2018-Nov-14 09:14 340 0 gusting 1 20.0
2018-Nov-14 09:09 340 0 gusting 2 19.4
2018-Nov-14 09:04 340 1 gusting 2 19.4
2018-Nov-14 08:59 350 1 gusting 2 18.9
2018-Nov-14 08:54 003 1 gusting 2 18.9
2018-Nov-14 08:49 348 1 gusting 2 18.9
2018-Nov-14 08:44 18.3
2018-Nov-14 08:39 343 1 gusting 2 18.3
2018-Nov-14 08:34 345 1 gusting 4 18.3
2018-Nov-14 08:29 342 2 gusting 5 18.3
2018-Nov-14 08:24 350 1 gusting 5 17.8
2018-Nov-14 08:19 351 2 gusting 6 17.8
2018-Nov-14 08:14 005 1 gusting 5 17.8
2018-Nov-14 08:09 17.8
2018-Nov-14 08:04 003 1 gusting 6 17.2
2018-Nov-14 07:59 344 2 gusting 6 17.2
2018-Nov-14 07:54 354 1 gusting 6 17.2
2018-Nov-14 07:49 357 2 gusting 6 16.7
2018-Nov-14 07:44 325 1 gusting 6 16.7
2018-Nov-14 07:39 339 3 gusting 6 16.7
2018-Nov-14 07:34 010 2 gusting 6 16.7
2018-Nov-14 07:29 341 2 gusting 6 16.7
2018-Nov-14 07:24 332 1 gusting 6 16.7
2018-Nov-14 07:19 019 2 gusting 6 16.7
2018-Nov-14 07:14 007 1 gusting 5 16.7
2018-Nov-14 07:09 015 2 gusting 5 16.7
2018-Nov-14 07:04 001 2 gusting 6 16.7
2018-Nov-14 06:59 013 1 gusting 5 16.7
2018-Nov-14 06:54 346 1 gusting 6 16.7
2018-Nov-14 06:49 323 0 gusting 2 16.7
2018-Nov-14 06:44 318 0 gusting 2 16.7
2018-Nov-14 06:39 16.7
2018-Nov-14 06:34 283 16.7
2018-Nov-14 06:29 024 16.7
2018-Nov-14 06:24 024 16.7
2018-Nov-14 06:19 024 17.2
2018-Nov-14 06:14 024 17.2
2018-Nov-14 06:09 024 17.2
2018-Nov-14 06:04 024 17.2
2018-Nov-14 05:59 042 17.2
2018-Nov-14 05:54 042 17.2
2018-Nov-14 05:49 042 17.2
2018-Nov-14 05:44 044 17.2
2018-Nov-14 05:39 035 2 gusting 4 17.8
2018-Nov-14 05:34 049 17.8
2018-Nov-14 05:29 302 17.8
2018-Nov-14 05:24 294 17.8
2018-Nov-14 05:19 014 0 gusting 2 17.8
2018-Nov-14 05:14 023 1 gusting 4 17.8
2018-Nov-14 05:09 026 1 gusting 2 17.8
2018-Nov-14 05:04 025 0 gusting 2 17.8
2018-Nov-14 04:59 005 0 gusting 2 17.2
2018-Nov-14 04:54 353 1 gusting 4 17.2
2018-Nov-14 04:49 308 17.2
2018-Nov-14 04:44 308 0 gusting 2 17.2
2018-Nov-14 04:39 325 2 gusting 2 17.2
2018-Nov-14 04:34 298 1 gusting 2 17.2
2018-Nov-14 04:29 316 17.2
2018-Nov-14 04:24 082 17.2
2018-Nov-14 04:19 082 17.8
2018-Nov-14 04:14 082 17.8
2018-Nov-14 04:09 082 17.8
2018-Nov-14 04:04 082 18.3
2018-Nov-14 03:59 082 18.3
2018-Nov-14 03:54 082 18.3
2018-Nov-14 03:49 082 18.3
2018-Nov-14 03:44 082 18.3
2018-Nov-14 03:39 082 18.3
2018-Nov-14 03:34 082 18.3
2018-Nov-14 03:29 082 18.3
2018-Nov-14 03:19 082 0 gusting 4 18.3
2018-Nov-14 03:14 059 0 gusting 2 18.3
2018-Nov-14 03:09 071 1 gusting 6 18.3
2018-Nov-14 03:04 058 2 gusting 5 18.3
2018-Nov-14 02:59 067 2 gusting 6 17.8
2018-Nov-14 02:54 084 4 gusting 7 17.8
2018-Nov-14 02:49 062 3 gusting 7 18.3
2018-Nov-14 02:44 053 2 gusting 6 17.8
2018-Nov-14 02:39 069 3 gusting 7 17.8
2018-Nov-14 02:34 076 6 gusting 10 17.8
2018-Nov-14 02:29 080 3 gusting 6 17.8
2018-Nov-14 02:24 106 0 gusting 2 17.8
2018-Nov-14 02:19 040 0 gusting 2 17.8
2018-Nov-14 02:14 070 0 gusting 2 17.8
2018-Nov-14 02:09 197 17.8
2018-Nov-14 02:04 196 0 gusting 2 17.8
2018-Nov-14 01:59 044 17.8
2018-Nov-14 01:54 040 1 gusting 4 17.8
2018-Nov-14 01:49 055 0 gusting 2 17.8
2018-Nov-14 01:44 061 2 gusting 5 17.8
2018-Nov-14 01:39 066 4 gusting 8 18.3
2018-Nov-14 01:34 065 3 gusting 8 18.3
2018-Nov-14 01:29 075 2 gusting 6 18.3
2018-Nov-14 01:24 063 2 gusting 6 18.3
2018-Nov-14 01:19 069 18.3
2018-Nov-14 01:14 069 0 gusting 1 18.3
2018-Nov-14 01:09 281 0 gusting 2 18.3
2018-Nov-14 01:04 281 1 gusting 2 18.9
2018-Nov-14 00:59 035 0 gusting 5 18.9
2018-Nov-14 00:54 051 1 gusting 7 18.9
2018-Nov-14 00:49 037 1 gusting 6 18.9
2018-Nov-14 00:44 039 3 gusting 7 18.9
2018-Nov-14 00:39 049 4 gusting 10 18.9
2018-Nov-14 00:34 009 1 gusting 8 18.9
2018-Nov-14 00:29 047 5 gusting 11 18.9
2018-Nov-14 00:24 051 6 gusting 10 18.9
2018-Nov-14 00:19 048 4 gusting 10 18.9
2018-Nov-14 00:14 067 5 gusting 11 18.9
2018-Nov-14 00:09 079 2 gusting 7 18.9
2018-Nov-14 00:04 048 4 gusting 8 18.9
2018-Nov-13 23:59 083 6 gusting 11 18.9
2018-Nov-13 23:54 080 6 gusting 12 18.9
2018-Nov-13 23:49 085 2 gusting 6 18.9
2018-Nov-13 23:44 066 1 gusting 6 18.3
2018-Nov-13 23:39 045 0 gusting 2 18.3
2018-Nov-13 23:34 070 0 gusting 4 18.3
2018-Nov-13 23:29 076 3 gusting 6 18.3
2018-Nov-13 23:25 060 4 gusting 8 18.3
2018-Nov-13 23:19 075 3 gusting 7 18.3
2018-Nov-13 23:14 069 4 gusting 8 18.3
2018-Nov-13 23:09 085 7 gusting 11 18.3
2018-Nov-13 23:04 077 7 gusting 12 18.3
2018-Nov-13 22:59 082 6 gusting 12 18.9
2018-Nov-13 22:54 090 5 gusting 10 18.9
2018-Nov-13 22:49 084 6 gusting 10 18.9
2018-Nov-13 22:44 073 2 gusting 10 18.9
2018-Nov-13 22:39 090 2 gusting 7 18.9
2018-Nov-13 22:34 087 5 gusting 10 18.9
2018-Nov-13 22:29 069 5 gusting 11 18.9
2018-Nov-13 22:24 088 5 gusting 6 18.9
2018-Nov-13 22:19 093 2 gusting 7 18.9
2018-Nov-13 22:14 080 5 gusting 8 18.9
2018-Nov-13 22:09 086 5 gusting 8 18.9
2018-Nov-13 22:04 084 4 gusting 6 18.9
2018-Nov-13 21:59 078 5 gusting 6 18.9
2018-Nov-13 21:54 079 2 gusting 7 19.4
2018-Nov-13 21:49 053 2 gusting 6 19.4
2018-Nov-13 21:44 081 3 gusting 7 19.4
2018-Nov-13 21:39 053 5 gusting 10 19.4
2018-Nov-13 21:34 039 3 gusting 8 19.4
2018-Nov-13 21:29 064 2 gusting 8 19.4
2018-Nov-13 21:24 103 2 gusting 6 19.4
2018-Nov-13 21:19 072 4 gusting 7 19.4
2018-Nov-13 21:14 053 1 gusting 6 19.4
2018-Nov-13 21:09 023 2 gusting 7 19.4
2018-Nov-13 21:04 047 6 gusting 10 19.4
2018-Nov-13 20:59 053 4 gusting 11 19.4
2018-Nov-13 20:54 053 5 gusting 10 19.4
2018-Nov-13 20:49 082 6 gusting 10 18.9
2018-Nov-13 20:44 073 5 gusting 10 18.9
2018-Nov-13 20:39 077 4 gusting 12 18.9
2018-Nov-13 20:34 053 6 gusting 10 19.4
2018-Nov-13 20:29 083 8 gusting 12 19.4
2018-Nov-13 20:24 081 7 gusting 12 19.4
2018-Nov-13 20:19 083 2 gusting 8 20.0
2018-Nov-13 20:14 117 2 gusting 6 20.0
2018-Nov-13 20:09 038 3 gusting 8 20.0
2018-Nov-13 20:04 275 20.6